GFSNGP_250_spd_165.txt.gz
Wind_Speed
128 127 128 132 132 129 126 126 125 118 124 122 128 126 123 125 123 117 114 112 112 104 104 108 112 115 120 125 125 128 127 130 141 141 138 134 128 121 119 118 117 116 121 115
139 135 132 132 123 119 123 124 130 134 133 127 127 127 125 123 122 120 120 122 125 124 129 131 124 125 132 134 136 143 146 132 129 127 121 117 117 112 112 109 110 112 106 108
143 143 145 145 133 144 141 140 142 140 134 128 131 130 132 131 130 129 131 134 136 140 142 144 143 143 142 140 139 127 120 113 105 102 102 102 100 99 101 101 100 103 107 106
143 143 146 137 137 135 138 138 135 139 135 129 126 128 131 133 131 131 132 134 136 135 130 128 123 117 117 115 112 108 103 100 96 92 93 94 99 96 97 96 94 96 94 97
143 142 138 136 124 125 132 134 126 122 125 121 119 120 120 119 120 123 123 122 119 114 113 111 108 104 98 96 97 97 95 91 88 85 84 84 87 88 86 89 86 86 88 87
118 120 114 101 98 113 120 124 108 115 116 113 112 112 109 109 111 112 111 110 105 101 97 95 93 93 93 90 87 82 82 82 79 77 77 78 79 79 80 81 80 81 82 83
106 109 110 94 97 104 110 104 106 108 105 99 96 95 95 99 100 100 105 98 95 91 88 86 84 84 81 79 78 75 74 72 68 67 67 67 68 69 69 71 72 73 75 76
98 99 92 82 92 97 94 97 95 94 97 93 89 87 87 90 93 97 96 90 87 83 80 75 69 69 69 67 68 66 62 59 58 57 58 58 58 60 61 63 66 67 68 68
87 79 73 75 81 84 87 89 87 89 89 86 83 82 82 83 88 90 87 80 76 77 75 68 64 60 61 62 63 58 54 51 49 50 51 52 54 54 55 57 58 57 59 60
83 73 71 70 74 74 80 77 75 81 83 77 74 73 77 82 87 84 78 74 70 68 67 65 62 59 57 56 55 54 50 48 48 47 48 48 49 51 52 53 52 52 50 51
73 69 70 64 63 65 68 68 71 68 73 66 64 62 64 76 81 79 74 68 63 60 59 57 57 55 52 51 51 51 47 45 44 43 41 44 44 44 43 43 43 42 44 45
69 72 64 55 58 59 62 61 62 61 61 60 56 56 62 67 70 66 62 59 54 52 51 51 50 46 45 47 46 44 43 41 40 40 40 38 36 36 36 36 36 37 39 40
60 68 58 53 53 57 55 58 53 53 58 54 49 55 62 63 63 58 54 52 50 48 43 44 45 42 40 40 39 38 37 38 37 34 34 33 32 31 32 32 32 34 34 34
53 57 55 54 52 51 50 55 51 54 47 42 50 57 60 57 51 47 47 49 46 43 43 41 38 35 36 36 35 36 36 32 30 31 31 29 27 26 27 27 28 28 28 28
45 47 49 51 48 46 51 49 51 42 40 45 51 54 51 46 44 41 45 46 41 41 37 34 33 34 34 34 32 30 28 26 28 27 22 22 22 23 24 25 27 29 30 30
42 40 42 43 42 42 44 47 51 47 46 47 49 47 46 45 41 37 42 44 42 37 33 32 32 32 29 27 26 22 22 23 20 18 18 20 22 23 25 27 28 30 32 32
36 37 42 44 42 41 45 46 47 47 49 44 43 44 43 42 39 38 37 37 32 30 31 29 26 25 22 20 19 18 17 16 16 16 19 21 22 24 26 28 29 30 32 33
32 36 36 35 36 39 43 45 46 45 44 41 41 41 41 39 37 36 32 28 27 28 27 24 21 18 17 17 16 16 14 15 17 18 20 21 23 25 27 28 29 30 31 33
31 31 34 34 36 37 40 42 42 40 38 39 39 40 40 36 33 31 26 25 26 24 23 19 18 16 16 17 15 14 15 16 18 19 20 21 24 25 27 28 29 29 29 32
32 32 32 33 34 34 34 36 36 36 37 38 40 39 36 33 29 25 24 25 24 22 20 20 18 17 17 16 16 16 16 18 19 19 21 21 23 24 25 27 29 29 29 30
28 30 32 31 31 31 31 33 36 36 36 37 38 35 33 28 26 24 24 25 23 22 21 20 18 18 17 17 17 17 18 19 20 20 21 22 23 25 26 28 30 33 33 33
26 28 29 30 32 32 33 34 33 34 34 32 32 32 30 26 25 26 24 25 23 21 21 20 19 18 19 20 19 19 20 20 20 21 22 24 26 28 29 30 33 36 38 38
24 25 27 28 28 28 29 29 27 28 29 30 30 28 28 26 25 25 25 23 23 22 21 20 19 20 21 22 21 21 21 22 22 23 25 27 29 31 34 36 37 39 41 44
20 20 21 24 26 28 30 32 32 33 31 28 26 25 25 23 25 24 23 23 23 21 21 21 20 21 22 23 23 23 23 24 24 26 28 30 33 36 39 43 45 45 45 47
18 19 19 21 24 27 27 27 26 27 26 25 24 24 23 24 24 24 24 24 22 22 23 22 21 22 23 24 24 25 26 27 28 30 32 33 35 39 43 46 48 50 50 51
23 22 21 21 22 21 23 24 25 24 25 24 24 24 24 24 24 25 24 23 22 23 24 23 23 24 24 25 26 28 29 31 33 35 37 39 40 43 46 49 52 53 54 55
22 22 21 21 19 20 22 22 22 24 24 24 25 24 24 25 25 25 24 23 23 23 24 25 25 26 26 27 29 31 33 35 38 41 43 44 45 49 51 53 55 55 56 56

GFSNGP_250_spd_168.txt.gz
Wind_Speed
130 129 128 130 127 124 123 120 123 117 120 108 113 117 116 113 114 111 109 119 125 125 118 111 115 116 115 116 118 115 117 119 121 126 130 127 126 125 122 123 126 120 116 114
131 129 130 130 125 118 120 128 131 132 131 132 139 139 140 138 139 135 132 129 131 131 129 125 122 122 123 126 126 128 130 128 130 126 127 127 121 118 117 117 114 114 107 101
132 130 136 137 121 126 122 124 129 130 124 124 129 131 134 133 131 130 130 130 132 131 125 120 124 124 122 119 118 116 112 112 114 112 109 107 106 104 104 102 103 100 97 95
139 138 141 129 127 130 129 128 128 123 118 124 126 129 129 127 124 123 126 126 121 120 118 118 118 114 111 110 108 105 102 100 97 95 94 94 93 91 90 92 90 90 91 92
115 118 120 115 101 108 113 114 116 112 113 115 117 120 114 112 115 115 113 113 111 113 113 115 113 108 103 98 97 96 94 93 92 89 87 85 85 84 83 84 85 82 86 84
103 103 103 93 89 98 102 104 91 104 106 102 106 109 101 105 107 108 108 107 105 106 108 109 103 97 93 90 88 86 84 82 82 83 81 78 76 76 75 75 76 77 79 78
101 96 96 86 86 91 98 90 89 94 96 98 100 99 100 102 102 101 100 97 96 98 98 96 93 87 82 78 74 69 69 69 70 71 70 66 65 66 65 65 65 66 67 67
98 96 89 84 91 91 90 89 89 86 90 94 95 94 95 95 96 92 88 87 87 87 88 89 83 78 75 68 65 64 62 60 61 59 56 54 54 54 57 58 58 59 60 61
90 84 82 83 88 89 87 89 89 88 86 85 84 86 88 88 86 82 79 80 79 82 86 83 76 71 69 64 61 58 57 55 51 48 47 44 46 48 51 52 53 54 56 55
89 75 75 74 75 73 75 74 73 76 79 77 75 81 82 82 77 74 74 74 75 79 80 73 69 66 61 60 57 54 52 51 50 46 42 40 42 42 45 47 47 48 47 47
75 75 85 73 71 69 66 62 63 67 69 67 70 72 74 74 74 70 68 68 67 72 71 64 59 57 54 51 50 50 49 48 46 43 40 38 40 40 40 40 42 41 40 41
67 72 74 68 74 73 65 62 64 63 61 57 62 64 66 63 65 64 62 62 63 64 57 52 53 52 48 46 46 44 44 43 41 39 38 35 35 36 36 35 34 35 36 36
61 70 65 58 67 68 60 63 64 57 56 56 58 59 61 61 59 57 56 56 59 53 51 48 46 44 42 42 40 38 36 35 34 33 33 34 32 32 30 30 31 32 31 30
51 53 52 56 60 58 57 59 58 55 56 54 54 55 53 55 54 51 53 50 53 51 46 43 39 38 39 37 34 32 31 32 32 30 30 29 27 27 28 27 26 26 26 26
48 49 44 52 55 55 55 55 55 59 53 53 52 53 51 48 46 46 46 48 50 44 42 39 36 37 34 32 31 30 30 29 28 27 25 23 24 23 22 22 22 23 25 27
43 45 51 50 49 47 47 48 52 51 51 51 48 45 43 39 40 43 45 48 44 39 41 37 36 33 30 29 27 27 28 24 22 20 20 19 18 18 19 21 23 25 26 28
44 45 42 46 45 42 41 43 44 47 49 47 44 44 43 39 39 42 44 40 36 39 38 36 33 29 27 26 26 21 20 17 16 17 18 18 18 18 19 21 23 24 26 27
33 34 36 39 43 42 41 41 44 46 50 48 45 44 38 36 36 40 39 33 32 37 34 32 28 25 24 23 21 18 16 17 17 18 17 17 18 18 19 21 22 24 25 26
28 29 30 36 40 40 38 38 41 46 48 45 43 40 37 38 40 38 34 29 32 34 32 30 24 24 23 21 20 19 18 18 18 18 17 18 18 18 18 19 21 23 24 25
23 26 29 33 38 38 39 40 43 45 43 42 43 41 39 41 39 34 30 29 32 31 30 27 23 23 22 23 22 20 18 18 18 18 18 18 18 18 19 20 20 22 25 27
24 25 26 27 31 33 35 36 35 35 36 38 39 39 39 36 34 30 32 33 31 28 28 24 24 24 25 25 23 19 19 19 19 19 19 19 19 20 22 24 24 24 26 29
21 22 24 27 30 32 34 34 36 37 37 37 36 36 36 36 34 33 34 33 31 29 26 25 26 26 26 25 23 20 20 21 21 21 21 21 21 22 25 28 30 30 31 33
23 24 24 24 24 26 28 31 33 35 35 35 35 34 32 33 34 34 33 29 30 28 26 27 27 27 27 25 23 22 22 22 23 24 23 23 24 26 28 31 35 38 39 40
19 20 21 22 22 24 25 26 27 27 27 28 29 31 35 35 33 31 28 28 28 27 26 28 26 27 27 25 24 23 23 24 25 26 26 27 29 30 32 35 38 41 44 46
18 20 21 22 23 25 26 28 29 29 30 30 29 29 28 28 28 27 26 27 28 25 26 27 26 27 25 25 25 24 25 26 28 28 29 31 33 34 37 39 41 44 46 50
14 18 21 21 21 23 24 24 26 26 24 25 27 28 26 26 27 27 26 27 26 26 26 25 26 25 25 25 25 25 25 27 29 31 32 34 37 40 42 43 44 47 50 52
13 15 15 16 18 19 20 23 25 26 27 25 25 25 26 27 27 26 26 27 26 26 26 25 25 24 24 24 25 26 27 28 30 33 36 39 42 45 47 49 49 52 54 55

GFSNGP_250_spd_174.txt.gz
Wind_Speed
137 134 135 136 135 135 136 134 134 130 129 123 123 124 124 120 116 113 111 111 112 111 111 111 112 112 113 113 114 116 115 115 116 117 117 117 119 123 124 123 120 120 124 125
146 141 142 144 142 139 136 136 134 136 128 127 125 126 125 120 116 115 115 114 112 107 105 107 111 110 109 111 112 114 115 118 117 113 111 112 112 111 111 111 113 113 111 112
151 146 147 147 139 142 138 135 131 132 125 123 120 123 121 113 110 101 97 95 97 96 94 95 96 97 100 103 104 104 105 104 106 106 103 103 100 98 97 99 100 100 101 101
146 144 147 138 133 137 137 132 129 130 123 119 109 104 100 85 84 80 83 84 82 85 89 88 92 95 99 100 101 102 102 102 100 98 98 99 95 92 91 92 90 91 91 90
142 141 136 129 115 119 121 117 111 102 89 90 90 88 83 83 81 78 79 78 83 84 86 87 87 90 94 97 98 102 101 97 98 97 94 91 85 79 77 79 80 79 79 79
144 132 127 115 105 102 103 104 95 89 85 78 90 88 75 91 90 81 74 80 83 87 89 90 90 93 96 99 99 100 95 92 90 85 83 80 75 73 73 73 72 71 71 70
123 121 116 101 94 90 92 84 81 80 74 79 94 96 88 85 88 85 73 76 78 80 85 88 88 91 94 96 97 90 85 82 77 78 76 74 70 68 67 65 65 64 63 64
98 96 92 86 82 82 82 81 76 72 71 71 80 81 79 81 78 75 75 77 77 79 84 88 94 95 94 92 87 84 81 76 73 72 72 70 63 60 59 59 60 59 57 57
89 83 81 79 80 76 78 80 76 75 76 75 76 81 83 82 73 72 77 78 83 85 79 93 93 92 90 86 83 79 76 72 70 69 67 62 61 57 55 55 55 53 51 50
87 80 87 85 80 77 81 82 79 76 73 78 77 75 75 73 77 79 82 87 84 81 78 89 87 85 84 79 78 74 71 67 65 61 61 60 55 52 51 50 49 47 47 47
90 79 89 84 82 80 82 79 73 71 69 66 65 67 70 75 81 80 87 88 87 82 84 83 77 74 73 73 72 69 63 60 58 60 58 53 49 50 49 46 44 41 41 42
80 74 81 68 69 73 73 69 68 70 70 72 72 74 77 75 79 77 81 83 79 75 78 73 68 67 65 67 65 58 56 55 56 55 51 46 44 43 40 37 38 37 36 36
65 66 73 62 63 73 71 69 67 69 68 70 71 71 72 72 74 76 74 72 74 74 69 63 59 63 61 59 55 50 51 52 49 47 40 38 38 36 34 34 34 33 32 31
61 59 58 61 53 65 62 60 60 54 55 59 59 62 66 70 69 69 66 64 60 64 61 54 56 56 54 54 46 47 48 44 43 36 35 35 31 34 33 31 28 27 26 26
56 53 50 53 51 58 55 51 50 51 54 52 54 55 56 55 54 54 54 54 57 59 54 50 52 52 52 46 43 45 42 41 34 32 31 28 30 29 25 23 21 21 20 21
44 45 48 48 52 51 47 49 47 51 49 50 49 47 51 53 58 57 53 53 54 54 51 48 49 50 47 41 42 42 39 35 31 27 28 25 25 25 20 18 18 19 20 21
39 40 39 39 43 44 45 46 44 43 44 46 47 48 47 50 51 50 53 53 52 50 47 46 49 47 42 41 40 38 33 32 27 26 25 22 23 22 20 19 20 21 21 21
34 34 35 35 35 36 37 38 38 40 42 43 43 41 44 42 42 48 52 52 49 48 46 48 45 44 41 41 38 35 31 28 28 25 23 22 22 22 21 20 21 22 21 21
29 29 29 30 31 31 31 31 34 36 37 38 38 38 38 39 42 46 48 44 42 47 45 43 42 40 38 39 35 32 31 28 30 24 23 23 23 23 22 21 22 22 22 22
24 26 25 25 26 28 29 31 33 32 33 32 34 35 36 38 37 41 41 42 42 42 42 39 38 38 37 37 33 33 32 30 30 23 25 25 24 24 23 23 23 23 23 24
21 22 23 22 23 23 26 28 30 29 30 29 29 33 31 33 35 37 35 36 35 36 37 37 38 36 36 36 32 31 33 33 30 25 27 26 25 25 24 24 26 26 26 28
22 21 21 22 22 22 22 24 25 26 27 26 30 31 33 33 32 33 35 34 34 33 34 35 36 38 37 34 31 32 33 35 30 27 29 28 27 27 26 26 28 29 30 31
19 21 21 21 21 22 21 23 25 24 27 27 29 30 31 31 32 33 33 34 35 34 34 36 36 35 36 34 32 33 33 35 30 29 30 30 29 29 29 29 30 31 33 33
21 21 22 22 22 22 23 23 26 27 28 28 28 29 32 32 32 32 32 32 33 35 35 34 36 37 36 34 33 33 34 34 30 31 31 32 31 30 31 32 32 33 34 35
21 22 22 22 23 24 24 25 26 27 28 30 30 32 32 32 33 33 33 33 32 33 35 36 38 37 36 34 32 33 35 33 30 32 32 34 33 32 33 34 35 35 34 36
21 21 20 22 24 25 25 25 25 26 27 28 30 31 32 33 33 34 34 35 35 36 36 35 33 31 31 30 31 34 33 31 31 32 33 35 33 32 34 35 35 36 36 36
18 20 21 22 24 25 25 25 27 27 26 25 26 26 27 30 31 32 32 32 32 33 32 32 30 29 31 32 32 32 31 30 30 32 34 34 33 34 35 35 37 37 38 39

GFSNGP_250_spd_177.txt.gz
Wind_Speed
126 127 127 128 130 130 130 132 137 133 131 129 134 134 132 134 129 128 122 120 120 119 116 113 110 109 104 102 95 100 97 98 103 105 108 108 110 114 118 120 122 122 124 126
135 134 135 138 139 138 139 141 144 141 138 137 139 137 136 129 130 123 122 121 118 111 108 102 96 91 92 94 96 99 100 104 107 107 105 106 110 113 115 115 113 111 114 114
145 144 147 149 140 145 144 146 142 142 137 133 132 132 131 124 125 122 116 106 101 96 88 87 88 87 89 95 93 96 97 102 105 104 105 103 104 105 107 106 103 102 100 100
152 155 156 142 141 141 140 141 134 133 127 125 126 130 123 119 120 110 103 96 87 74 74 76 82 83 81 84 89 94 96 96 99 100 104 104 103 102 101 97 97 94 91 92
158 151 146 142 141 140 137 138 131 122 118 127 123 115 112 107 99 98 84 81 81 78 75 78 75 78 85 93 86 90 94 95 95 97 99 97 97 95 96 96 92 87 85 80
153 153 153 146 139 134 136 135 127 120 116 110 108 99 98 101 101 94 86 86 78 84 80 84 91 94 95 95 95 89 91 95 98 99 96 96 94 85 78 77 71 71 71 67
157 158 156 145 134 137 129 125 116 111 101 95 91 92 91 87 92 90 88 83 82 95 81 87 94 103 100 92 89 86 84 91 94 97 82 76 70 65 65 64 62 62 59 58
151 149 143 132 125 119 116 112 106 96 94 89 83 81 83 84 85 86 86 83 81 93 95 95 99 102 99 79 79 83 89 90 91 85 78 73 69 63 61 60 59 57 54 53
126 124 121 115 107 105 103 99 98 94 87 86 83 77 75 77 75 79 83 81 87 87 90 93 91 80 78 75 77 83 89 89 88 84 79 71 67 63 60 57 54 52 51 50
113 103 104 106 103 98 95 94 90 87 84 80 79 72 71 70 72 74 74 71 72 71 70 73 77 80 79 79 85 84 89 90 87 81 76 69 64 61 56 53 50 50 50 47
101 91 94 95 91 90 92 88 85 83 80 79 79 73 72 69 68 70 70 69 70 72 73 76 80 81 83 81 86 89 86 81 79 74 68 65 60 55 51 49 48 46 45 44
83 79 84 76 80 84 85 83 78 73 73 75 75 74 76 74 77 77 74 74 74 75 77 79 82 86 86 86 84 80 78 79 74 65 64 60 55 50 47 46 43 39 39 39
67 71 73 74 73 77 74 73 70 66 64 65 68 73 78 78 78 78 78 76 75 79 79 82 81 86 89 83 78 78 77 72 63 60 58 55 49 44 44 40 34 36 36 35
63 64 65 69 61 68 63 62 61 61 61 62 62 65 65 70 73 74 74 74 77 78 75 77 81 84 72 73 75 70 65 61 55 54 53 46 42 41 39 31 32 32 28 27
56 53 54 57 57 60 57 55 55 56 55 54 57 59 61 62 66 69 73 74 76 77 75 78 76 72 67 68 61 59 58 53 50 51 45 40 38 38 31 28 29 27 21 19
46 44 47 49 49 51 51 49 50 51 51 52 53 53 55 54 57 60 65 68 69 73 72 72 71 63 58 56 56 52 52 46 45 43 38 35 36 33 27 27 25 25 19 19
39 39 41 41 42 45 47 43 42 44 45 46 48 47 47 48 50 52 56 57 57 60 61 58 49 47 47 48 50 47 46 40 40 38 35 35 35 28 28 24 24 22 19 20
35 36 37 35 36 35 37 37 36 37 37 38 40 41 43 44 44 45 47 47 46 46 46 46 41 41 44 44 45 43 41 39 36 37 36 34 33 29 28 24 24 21 21 22
31 30 31 32 30 31 31 32 31 33 34 34 35 37 38 37 38 39 39 39 41 42 42 42 38 41 41 42 42 38 38 39 38 37 35 32 32 31 28 24 24 22 21 23
28 28 26 26 25 26 28 27 27 28 30 30 31 32 32 33 33 33 33 33 34 35 40 37 37 38 41 42 39 39 38 39 35 35 34 33 32 31 29 26 24 24 24 26
28 27 25 24 23 24 25 25 24 22 23 27 28 29 30 29 28 28 30 30 31 33 33 34 39 41 44 41 40 38 36 36 35 34 35 32 34 30 30 28 26 26 28 30
22 25 23 23 23 23 23 23 21 21 21 23 22 26 25 25 24 23 24 27 28 29 31 36 40 42 41 41 42 37 35 35 35 37 36 34 34 31 32 30 28 29 31 33
20 21 22 21 22 23 22 21 21 21 20 21 21 23 21 21 22 23 24 24 26 28 31 33 33 32 32 34 35 36 36 37 38 39 38 34 35 32 34 31 30 32 33 34
20 21 22 22 21 21 23 24 22 22 22 23 24 23 23 22 23 23 24 25 25 26 28 29 30 32 32 33 35 36 38 38 38 40 38 35 36 33 35 33 32 33 35 36
19 18 19 20 21 20 21 21 23 24 25 26 26 26 26 27 27 26 26 27 29 30 31 33 34 34 35 36 37 39 38 37 38 40 39 35 35 33 35 34 32 34 36 37
17 17 19 20 19 20 21 21 21 22 23 24 24 25 26 27 28 29 30 31 31 32 33 34 34 34 35 36 37 36 34 35 38 39 36 35 35 32 35 33 32 34 36 37
17 16 16 16 18 19 20 20 20 21 22 23 24 25 25 25 26 28 30 30 30 30 30 32 32 32 32 31 30 31 35 36 36 36 33 35 32 31 34 33 33 34 35 37

GFSNGP_250_spd_180.txt.gz
Wind_Speed
119 115 116 116 119 117 123 121 125 123 127 118 127 126 122 123 124 127 131 132 135 132 124 120 111 109 108 106 103 103 101 93 86 83 82 92 87 94 96 98 101 106 109 117
129 126 129 131 125 122 127 128 133 133 128 126 133 132 131 130 133 135 137 133 125 122 118 118 110 112 107 98 98 97 88 84 85 87 92 96 97 98 106 106 109 114 118 115
135 131 136 139 128 133 137 137 137 142 135 135 139 140 136 136 136 137 130 125 125 124 119 112 115 107 101 95 87 83 81 83 85 89 87 89 93 97 106 110 111 112 111 110
144 142 146 140 142 144 145 142 146 149 143 147 146 140 136 133 129 129 126 128 122 119 112 112 108 90 80 80 81 78 78 81 82 82 84 91 95 96 99 102 104 100 98 94
155 152 150 148 154 150 152 148 147 146 145 146 143 140 136 134 128 130 126 110 105 108 111 95 82 70 74 83 84 88 82 79 78 82 88 92 97 99 101 99 97 94 92 82
160 162 162 157 154 158 157 156 149 144 143 140 136 136 137 131 119 115 106 105 104 95 85 87 82 77 83 85 91 85 87 78 88 94 102 100 100 104 101 102 100 83 72 63
169 169 166 159 151 157 159 155 150 146 138 129 124 115 117 116 103 99 90 91 83 85 79 88 88 85 90 90 86 85 88 93 93 96 101 103 103 104 104 98 84 61 58 57
163 163 160 158 156 152 150 141 133 130 125 120 112 106 101 99 95 90 88 85 82 80 82 85 87 85 86 87 91 95 100 93 97 98 105 96 98 101 96 84 69 62 58 57
154 152 146 144 141 135 130 126 119 116 114 110 104 98 90 86 83 83 81 86 84 80 81 90 96 100 97 97 102 106 105 103 98 101 99 100 102 94 85 74 64 65 59 55
138 132 131 126 123 118 118 112 107 101 99 101 99 90 84 81 78 76 79 83 82 82 80 87 96 97 106 106 109 111 110 93 91 101 99 93 86 82 75 69 69 64 57 52
119 114 106 103 101 104 104 101 97 95 89 86 87 88 84 79 77 71 77 77 82 81 80 80 84 84 89 92 95 96 95 98 92 92 87 81 80 76 73 67 68 57 52 51
100 91 90 87 95 100 93 91 90 85 83 81 76 72 80 79 75 69 71 76 78 82 84 83 81 83 79 76 78 78 79 84 82 81 80 79 77 74 69 70 60 52 50 47
76 82 84 84 82 86 86 83 81 78 76 74 74 68 66 70 71 67 63 66 71 74 81 79 82 80 76 75 73 79 76 76 79 79 78 79 75 71 70 64 54 48 46 41
74 71 73 70 68 71 70 70 70 69 69 68 67 65 63 59 60 64 64 65 67 67 73 77 78 81 80 77 75 81 78 80 80 79 77 76 70 67 65 57 48 45 40 38
66 63 63 64 62 62 62 62 61 61 62 60 58 58 57 57 55 58 62 67 67 67 68 80 72 71 78 82 81 84 83 80 80 74 73 69 66 63 54 48 44 41 36 34
58 57 56 57 56 54 53 53 52 51 53 53 51 52 54 53 53 54 57 61 62 63 65 72 67 70 77 71 76 78 71 75 72 67 65 64 59 52 49 42 40 38 35 31
51 50 49 49 49 49 50 50 48 46 44 46 47 45 46 47 48 50 51 51 51 54 56 59 65 72 67 67 72 73 70 65 58 60 60 54 47 47 45 38 38 36 33 30
44 43 43 43 42 40 41 41 40 39 39 39 39 40 41 43 45 46 46 47 47 48 47 51 56 59 61 63 58 67 61 54 55 56 49 44 43 45 39 37 39 33 33 31
38 39 39 38 38 37 35 33 33 32 32 32 33 35 36 37 37 38 38 39 43 44 45 47 48 52 55 53 59 56 53 50 46 45 43 42 39 43 38 38 37 33 34 32
34 36 34 35 34 33 32 31 29 29 27 27 29 28 29 30 31 31 32 33 36 38 37 42 45 47 47 52 54 47 42 42 41 42 41 39 37 42 39 38 36 34 36 34
31 32 32 30 31 32 31 29 26 24 24 27 26 25 24 23 24 24 25 27 29 31 33 36 40 42 44 46 43 42 39 40 39 42 39 34 37 40 39 37 35 36 38 36
28 28 30 28 28 30 29 28 26 23 26 24 24 21 21 21 20 20 23 24 25 27 30 34 35 35 36 38 38 37 40 39 43 40 33 31 38 42 39 36 38 40 39 38
26 25 27 27 24 26 27 24 24 25 26 24 24 20 21 20 19 19 18 21 23 25 26 26 29 32 35 36 37 39 40 42 44 39 36 35 43 45 41 37 41 42 41 39
24 21 20 21 23 23 23 24 22 24 25 26 25 24 23 20 19 19 20 20 21 22 24 27 31 34 38 37 37 38 39 39 38 36 40 41 45 42 41 38 41 44 44 40
22 20 18 18 20 22 22 22 22 21 21 23 24 23 23 23 23 22 23 22 23 24 27 29 30 32 35 36 36 35 36 36 37 39 41 42 43 42 41 41 40 44 45 40
22 21 20 20 20 19 20 21 20 21 20 21 21 22 22 21 22 24 25 25 27 28 30 32 33 34 34 36 37 39 39 41 41 42 43 43 42 42 42 41 41 41 42 40
20 19 18 17 17 18 19 19 19 18 18 20 21 22 22 22 23 22 22 23 24 27 29 31 33 36 38 39 40 40 41 41 40 41 42 42 43 43 39 39 39 39 40 38